EKRAN 4 1 11561U 79087A 21063.19968676 .00000079 00000-0 00000-0 0 9995 2 11561 10.2319 306.6412 0010052 94.4612 246.0673 1.00284039 28003 SL-12 R/B(2) 1 17939U 79087C 21063.83733406 .00000089 00000-0 00000-0 0 9993 2 17939 9.9921 305.7262 0038422 309.3936 220.7550 1.00469160 28040